#datetime,building,power
2023-06-13T00:00:00,mfh,38.63
2023-06-13T00:01:00,mfh,38.56
2023-06-13T00:02:00,mfh,38.68
2023-06-13T00:03:00,mfh,38.73
2023-06-13T00:04:00,mfh,39.19
2023-06-13T00:05:00,mfh,39.06
2023-06-13T00:06:00,mfh,39.02
2023-06-13T00:07:00,mfh,38.91
2023-06-13T00:08:00,mfh,39.03
2023-06-13T00:09:00,mfh,38.05
2023-06-13T00:10:00,mfh,38.01
2023-06-13T00:11:00,mfh,38.00
2023-06-13T00:12:00,mfh,38.09
2023-06-13T00:13:00,mfh,38.24
2023-06-13T00:14:00,mfh,38.36
2023-06-13T00:15:00,mfh,38.46
2023-06-13T00:16:00,mfh,38.37
2023-06-13T00:17:00,mfh,38.39
2023-06-13T00:18:00,mfh,37.72
2023-06-13T00:19:00,mfh,37.65
2023-06-13T00:20:00,mfh,37.62
2023-06-13T00:21:00,mfh,37.71
2023-06-13T00:22:00,mfh,38.29
2023-06-13T00:23:00,mfh,38.23
2023-06-13T00:24:00,mfh,38.37
2023-06-13T00:25:00,mfh,38.33
2023-06-13T00:26:00,mfh,38.32
2023-06-13T00:27:00,mfh,37.59
2023-06-13T00:28:00,mfh,37.56
2023-06-13T00:29:00,mfh,37.65
2023-06-13T00:30:00,mfh,37.62
2023-06-13T00:31:00,mfh,38.22
2023-06-13T00:32:00,mfh,38.22
2023-06-13T00:33:00,mfh,39.62
2023-06-13T00:34:00,mfh,39.67
2023-06-13T00:35:00,mfh,39.75
2023-06-13T00:36:00,mfh,39.13
2023-06-13T00:37:00,mfh,39.08
2023-06-13T00:38:00,mfh,39.02
2023-06-13T00:39:00,mfh,37.34
2023-06-13T00:40:00,mfh,38.05
2023-06-13T00:41:00,mfh,38.07
2023-06-13T00:42:00,mfh,38.08
2023-06-13T00:43:00,mfh,38.37
2023-06-13T00:44:00,mfh,38.28
2023-06-13T00:45:00,mfh,37.67
2023-06-13T00:46:00,mfh,37.88
2023-06-13T00:47:00,mfh,37.75
2023-06-13T00:48:00,mfh,37.76
2023-06-13T00:49:00,mfh,38.30
2023-06-13T00:50:00,mfh,38.30
2023-06-13T00:51:00,mfh,38.62
2023-06-13T00:52:00,mfh,38.40
2023-06-13T00:53:00,mfh,38.45
2023-06-13T00:54:00,mfh,37.63
2023-06-13T00:55:00,mfh,37.78
2023-06-13T00:56:00,mfh,37.71
2023-06-13T00:57:00,mfh,38.41
2023-06-13T00:58:00,mfh,38.52
2023-06-13T00:59:00,mfh,38.38
2023-06-13T01:00:00,mfh,38.35
2023-06-13T01:01:00,mfh,38.45
2023-06-13T01:02:00,mfh,39.07
2023-06-13T01:03:00,mfh,37.63
2023-06-13T01:04:00,mfh,37.62
2023-06-13T01:05:00,mfh,37.55
2023-06-13T01:06:00,mfh,37.52
2023-06-13T01:07:00,mfh,38.20
2023-06-13T01:08:00,mfh,38.31
2023-06-13T01:09:00,mfh,38.38
2023-06-13T01:10:00,mfh,38.26
2023-06-13T01:11:00,mfh,38.32
2023-06-13T01:12:00,mfh,37.56
2023-06-13T01:13:00,mfh,37.56
2023-06-13T01:14:00,mfh,37.54
2023-06-13T01:15:00,mfh,37.54
2023-06-13T01:16:00,mfh,38.77
2023-06-13T01:17:00,mfh,38.88
2023-06-13T01:18:00,mfh,38.83
2023-06-13T01:19:00,mfh,39.11
2023-06-13T01:20:00,mfh,39.98
2023-06-13T01:21:00,mfh,38.34
2023-06-13T01:22:00,mfh,37.45
2023-06-13T01:23:00,mfh,37.43
2023-06-13T01:24:00,mfh,38.04
2023-06-13T01:25:00,mfh,38.06
2023-06-13T01:26:00,mfh,38.29
2023-06-13T01:27:00,mfh,38.33
2023-06-13T01:28:00,mfh,38.35
2023-06-13T01:29:00,mfh,38.27
2023-06-13T01:30:00,mfh,37.73
2023-06-13T01:31:00,mfh,37.66
2023-06-13T01:32:00,mfh,37.64
2023-06-13T01:33:00,mfh,37.56
2023-06-13T01:34:00,mfh,38.39
2023-06-13T01:35:00,mfh,38.18
2023-06-13T01:36:00,mfh,39.05
2023-06-13T01:37:00,mfh,38.15
2023-06-13T01:38:00,mfh,38.23
2023-06-13T01:39:00,mfh,37.62
2023-06-13T01:40:00,mfh,37.69
2023-06-13T01:41:00,mfh,37.86
2023-06-13T01:42:00,mfh,37.77
2023-06-13T01:43:00,mfh,38.59
2023-06-13T01:44:00,mfh,38.34
2023-06-13T01:45:00,mfh,38.30
2023-06-13T01:46:00,mfh,38.88
2023-06-13T01:47:00,mfh,38.30
2023-06-13T01:48:00,mfh,37.56
2023-06-13T01:49:00,mfh,37.99
2023-06-13T01:50:00,mfh,37.58
2023-06-13T01:51:00,mfh,38.24
2023-06-13T01:52:00,mfh,38.28
2023-06-13T01:53:00,mfh,38.31
2023-06-13T01:54:00,mfh,38.27
2023-06-13T01:55:00,mfh,38.22
2023-06-13T01:56:00,mfh,38.30
2023-06-13T01:57:00,mfh,37.71
2023-06-13T01:58:00,mfh,37.67
2023-06-13T01:59:00,mfh,37.71
2023-06-13T02:00:00,mfh,37.72
2023-06-13T02:01:00,mfh,38.23
2023-06-13T02:02:00,mfh,38.14
2023-06-13T02:03:00,mfh,38.32
2023-06-13T02:04:00,mfh,38.31
2023-06-13T02:05:00,mfh,38.51
2023-06-13T02:06:00,mfh,37.65
2023-06-13T02:07:00,mfh,37.74
2023-06-13T02:08:00,mfh,37.85
2023-06-13T02:09:00,mfh,37.68
2023-06-13T02:10:00,mfh,38.36
2023-06-13T02:11:00,mfh,38.33
2023-06-13T02:12:00,mfh,38.28
2023-06-13T02:13:00,mfh,38.27
2023-06-13T02:14:00,mfh,38.33
2023-06-13T02:15:00,mfh,37.62
2023-06-13T02:16:00,mfh,37.68
2023-06-13T02:17:00,mfh,37.58
2023-06-13T02:18:00,mfh,37.54
2023-06-13T02:19:00,mfh,38.39
2023-06-13T02:20:00,mfh,38.53
2023-06-13T02:21:00,mfh,38.17
2023-06-13T02:22:00,mfh,38.21
2023-06-13T02:23:00,mfh,38.24
2023-06-13T02:24:00,mfh,37.59
2023-06-13T02:25:00,mfh,37.71
2023-06-13T02:26:00,mfh,37.71
2023-06-13T02:27:00,mfh,37.77
2023-06-13T02:28:00,mfh,38.14
2023-06-13T02:29:00,mfh,38.23
2023-06-13T02:30:00,mfh,38.22
2023-06-13T02:31:00,mfh,38.24
2023-06-13T02:32:00,mfh,38.20
2023-06-13T02:33:00,mfh,37.77
2023-06-13T02:34:00,mfh,37.72
2023-06-13T02:35:00,mfh,37.69
2023-06-13T02:36:00,mfh,37.68
2023-06-13T02:37:00,mfh,38.39
2023-06-13T02:38:00,mfh,38.41
2023-06-13T02:39:00,mfh,38.36
2023-06-13T02:40:00,mfh,38.31
2023-06-13T02:41:00,mfh,38.27
2023-06-13T02:42:00,mfh,37.56
2023-06-13T02:43:00,mfh,38.21
2023-06-13T02:44:00,mfh,37.50
2023-06-13T02:45:00,mfh,38.08
2023-06-13T02:46:00,mfh,38.03
2023-06-13T02:47:00,mfh,38.09
2023-06-13T02:48:00,mfh,38.16
2023-06-13T02:49:00,mfh,38.19
2023-06-13T02:50:00,mfh,38.08
2023-06-13T02:51:00,mfh,37.38
2023-06-13T02:52:00,mfh,37.42
2023-06-13T02:53:00,mfh,37.47
2023-06-13T02:54:00,mfh,37.44
2023-06-13T02:55:00,mfh,37.98
2023-06-13T02:56:00,mfh,38.00
2023-06-13T02:57:00,mfh,38.04
2023-06-13T02:58:00,mfh,38.12
2023-06-13T02:59:00,mfh,38.26
2023-06-13T03:00:00,mfh,37.57
2023-06-13T03:01:00,mfh,37.45
2023-06-13T03:02:00,mfh,37.43
2023-06-13T03:03:00,mfh,37.49
2023-06-13T03:04:00,mfh,38.22
2023-06-13T03:05:00,mfh,39.07
2023-06-13T03:06:00,mfh,38.31
2023-06-13T03:07:00,mfh,38.40
2023-06-13T03:08:00,mfh,38.40
2023-06-13T03:09:00,mfh,37.77
2023-06-13T03:10:00,mfh,37.78
2023-06-13T03:11:00,mfh,37.69
2023-06-13T03:12:00,mfh,37.69
2023-06-13T03:13:00,mfh,38.50
2023-06-13T03:14:00,mfh,38.62
2023-06-13T03:15:00,mfh,38.54
2023-06-13T03:16:00,mfh,38.44
2023-06-13T03:17:00,mfh,38.48
2023-06-13T03:18:00,mfh,37.77
2023-06-13T03:19:00,mfh,37.75
2023-06-13T03:20:00,mfh,37.68
2023-06-13T03:21:00,mfh,39.90
2023-06-13T03:22:00,mfh,40.00
2023-06-13T03:23:00,mfh,40.06
2023-06-13T03:24:00,mfh,40.44
2023-06-13T03:25:00,mfh,40.18
2023-06-13T03:26:00,mfh,38.51
2023-06-13T03:27:00,mfh,37.76
2023-06-13T03:28:00,mfh,37.75
2023-06-13T03:29:00,mfh,37.96
2023-06-13T03:30:00,mfh,37.82
2023-06-13T03:31:00,mfh,38.50
2023-06-13T03:32:00,mfh,38.51
2023-06-13T03:33:00,mfh,38.53
2023-06-13T03:34:00,mfh,38.46
2023-06-13T03:35:00,mfh,37.91
2023-06-13T03:36:00,mfh,38.03
2023-06-13T03:37:00,mfh,37.88
2023-06-13T03:38:00,mfh,37.79
2023-06-13T03:39:00,mfh,38.37
2023-06-13T03:40:00,mfh,38.25
2023-06-13T03:41:00,mfh,38.29
2023-06-13T03:42:00,mfh,38.29
2023-06-13T03:43:00,mfh,38.29
2023-06-13T03:44:00,mfh,37.61
2023-06-13T03:45:00,mfh,37.63
2023-06-13T03:46:00,mfh,37.69
2023-06-13T03:47:00,mfh,37.67
2023-06-13T03:48:00,mfh,38.35
2023-06-13T03:49:00,mfh,38.10
2023-06-13T03:50:00,mfh,38.35
2023-06-13T03:51:00,mfh,38.54
2023-06-13T03:52:00,mfh,38.32
2023-06-13T03:53:00,mfh,37.68
2023-06-13T03:54:00,mfh,37.66
2023-06-13T03:55:00,mfh,37.66
2023-06-13T03:56:00,mfh,37.63
2023-06-13T03:57:00,mfh,38.48
2023-06-13T03:58:00,mfh,38.37
2023-06-13T03:59:00,mfh,38.35
2023-06-13T04:00:00,mfh,39.26
2023-06-13T04:01:00,mfh,38.51
2023-06-13T04:02:00,mfh,37.65
2023-06-13T04:03:00,mfh,37.77
2023-06-13T04:04:00,mfh,37.76
2023-06-13T04:05:00,mfh,37.84
2023-06-13T04:06:00,mfh,39.36
2023-06-13T04:07:00,mfh,39.34
2023-06-13T04:08:00,mfh,39.41
2023-06-13T04:09:00,mfh,40.24
2023-06-13T04:10:00,mfh,39.30
2023-06-13T04:11:00,mfh,39.12
2023-06-13T04:12:00,mfh,39.19
2023-06-13T04:13:00,mfh,39.16
2023-06-13T04:14:00,mfh,39.73
2023-06-13T04:15:00,mfh,39.75
2023-06-13T04:16:00,mfh,39.75
2023-06-13T04:17:00,mfh,39.77
2023-06-13T04:18:00,mfh,40.77
2023-06-13T04:19:00,mfh,40.22
2023-06-13T04:20:00,mfh,39.22
2023-06-13T04:21:00,mfh,39.20
2023-06-13T04:22:00,mfh,39.10
2023-06-13T04:23:00,mfh,39.48
2023-06-13T04:24:00,mfh,40.44
2023-06-13T04:25:00,mfh,40.12
2023-06-13T04:26:00,mfh,40.17
2023-06-13T04:27:00,mfh,40.14
2023-06-13T04:28:00,mfh,40.05
2023-06-13T04:29:00,mfh,39.77
2023-06-13T04:30:00,mfh,38.78
2023-06-13T04:31:00,mfh,38.94
2023-06-13T04:32:00,mfh,38.93
2023-06-13T04:33:00,mfh,39.42
2023-06-13T04:34:00,mfh,39.56
2023-06-13T04:35:00,mfh,39.66
2023-06-13T04:36:00,mfh,39.68
2023-06-13T04:37:00,mfh,40.06
2023-06-13T04:38:00,mfh,38.86
2023-06-13T04:39:00,mfh,38.79
2023-06-13T04:40:00,mfh,38.68
2023-06-13T04:41:00,mfh,39.81
2023-06-13T04:42:00,mfh,39.59
2023-06-13T04:43:00,mfh,39.60
2023-06-13T04:44:00,mfh,39.36
2023-06-13T04:45:00,mfh,39.33
2023-06-13T04:46:00,mfh,39.30
2023-06-13T04:47:00,mfh,38.66
2023-06-13T04:48:00,mfh,38.60
2023-06-13T04:49:00,mfh,38.68
2023-06-13T04:50:00,mfh,39.30
2023-06-13T04:51:00,mfh,39.40
2023-06-13T04:52:00,mfh,39.62
2023-06-13T04:53:00,mfh,39.57
2023-06-13T04:54:00,mfh,39.51
2023-06-13T04:55:00,mfh,39.38
2023-06-13T04:56:00,mfh,38.59
2023-06-13T04:57:00,mfh,38.54
2023-06-13T04:58:00,mfh,38.82
2023-06-13T04:59:00,mfh,39.24
2023-06-13T05:00:00,mfh,39.18
2023-06-13T05:01:00,mfh,56.07
2023-06-13T05:02:00,mfh,59.07
2023-06-13T05:03:00,mfh,58.95
2023-06-13T05:04:00,mfh,58.97
2023-06-13T05:05:00,mfh,58.06
2023-06-13T05:06:00,mfh,58.16
2023-06-13T05:07:00,mfh,58.02
2023-06-13T05:08:00,mfh,58.56
2023-06-13T05:09:00,mfh,59.10
2023-06-13T05:10:00,mfh,59.33
2023-06-13T05:11:00,mfh,59.16
2023-06-13T05:12:00,mfh,59.70
2023-06-13T05:13:00,mfh,58.70
2023-06-13T05:14:00,mfh,58.72
2023-06-13T05:15:00,mfh,57.89
2023-06-13T05:16:00,mfh,58.07
2023-06-13T05:17:00,mfh,58.49
2023-06-13T05:18:00,mfh,59.39
2023-06-13T05:19:00,mfh,58.74
2023-06-13T05:20:00,mfh,58.81
2023-06-13T05:21:00,mfh,58.68
2023-06-13T05:22:00,mfh,58.69
2023-06-13T05:23:00,mfh,58.18
2023-06-13T05:24:00,mfh,58.13
2023-06-13T05:25:00,mfh,58.06
2023-06-13T05:26:00,mfh,58.70
2023-06-13T05:27:00,mfh,58.88
2023-06-13T05:28:00,mfh,58.75
2023-06-13T05:29:00,mfh,58.20
2023-06-13T05:30:00,mfh,58.20
2023-06-13T05:31:00,mfh,57.66
2023-06-13T05:32:00,mfh,58.02
2023-06-13T05:33:00,mfh,57.73
2023-06-13T05:34:00,mfh,57.75
2023-06-13T05:35:00,mfh,58.38
2023-06-13T05:36:00,mfh,58.38
2023-06-13T05:37:00,mfh,58.51
2023-06-13T05:38:00,mfh,58.37
2023-06-13T05:39:00,mfh,58.36
2023-06-13T05:40:00,mfh,58.09
2023-06-13T05:41:00,mfh,57.49
2023-06-13T05:42:00,mfh,57.65
2023-06-13T05:43:00,mfh,58.29
2023-06-13T05:44:00,mfh,58.29
2023-06-13T05:45:00,mfh,58.36
2023-06-13T05:46:00,mfh,58.30
2023-06-13T05:47:00,mfh,58.51
2023-06-13T05:48:00,mfh,57.76
2023-06-13T05:49:00,mfh,57.77
2023-06-13T05:50:00,mfh,57.97
2023-06-13T05:51:00,mfh,57.61
2023-06-13T05:52:00,mfh,58.13
2023-06-13T05:53:00,mfh,58.23
2023-06-13T05:54:00,mfh,58.32
2023-06-13T05:55:00,mfh,58.36
2023-06-13T05:56:00,mfh,57.84
2023-06-13T05:57:00,mfh,57.20
2023-06-13T05:58:00,mfh,57.14
2023-06-13T05:59:00,mfh,57.94
2023-06-13T06:00:00,mfh,57.24
2023-06-13T06:01:00,mfh,60.07
2023-06-13T06:02:00,mfh,60.00
2023-06-13T06:03:00,mfh,59.97
2023-06-13T06:04:00,mfh,60.16
2023-06-13T06:05:00,mfh,59.91
2023-06-13T06:06:00,mfh,69.42
2023-06-13T06:07:00,mfh,71.26
2023-06-13T06:08:00,mfh,69.85
2023-06-13T06:09:00,mfh,69.93
2023-06-13T06:10:00,mfh,70.40
2023-06-13T06:11:00,mfh,72.17
2023-06-13T06:12:00,mfh,71.99
2023-06-13T06:13:00,mfh,71.83
2023-06-13T06:14:00,mfh,72.56
2023-06-13T06:15:00,mfh,71.02
2023-06-13T06:16:00,mfh,69.58
2023-06-13T06:17:00,mfh,69.87
2023-06-13T06:18:00,mfh,69.85
2023-06-13T06:19:00,mfh,71.66
2023-06-13T06:20:00,mfh,70.06
2023-06-13T06:21:00,mfh,70.94
2023-06-13T06:22:00,mfh,70.49
2023-06-13T06:23:00,mfh,70.98
2023-06-13T06:24:00,mfh,69.86
2023-06-13T06:25:00,mfh,69.63
2023-06-13T06:26:00,mfh,69.74
2023-06-13T06:27:00,mfh,70.41
2023-06-13T06:28:00,mfh,70.22
2023-06-13T06:29:00,mfh,70.87
2023-06-13T06:30:00,mfh,70.37
2023-06-13T06:31:00,mfh,70.20
2023-06-13T06:32:00,mfh,70.86
2023-06-13T06:33:00,mfh,70.73
2023-06-13T06:34:00,mfh,69.60
2023-06-13T06:35:00,mfh,69.50
2023-06-13T06:36:00,mfh,69.87
2023-06-13T06:37:00,mfh,69.87
2023-06-13T06:38:00,mfh,69.98
2023-06-13T06:39:00,mfh,70.14
2023-06-13T06:40:00,mfh,70.81
2023-06-13T06:41:00,mfh,70.10
2023-06-13T06:42:00,mfh,69.36
2023-06-13T06:43:00,mfh,68.82
2023-06-13T06:44:00,mfh,70.37
2023-06-13T06:45:00,mfh,69.16
2023-06-13T06:46:00,mfh,69.94
2023-06-13T06:47:00,mfh,71.24
2023-06-13T06:48:00,mfh,69.94
2023-06-13T06:49:00,mfh,69.73
2023-06-13T06:50:00,mfh,70.48
2023-06-13T06:51:00,mfh,69.09
2023-06-13T06:52:00,mfh,69.18
2023-06-13T06:53:00,mfh,70.87
2023-06-13T06:54:00,mfh,69.05
2023-06-13T06:55:00,mfh,69.79
2023-06-13T06:56:00,mfh,70.07
2023-06-13T06:57:00,mfh,70.02
2023-06-13T06:58:00,mfh,69.97
2023-06-13T06:59:00,mfh,69.92
2023-06-13T07:00:00,mfh,69.22
2023-06-13T07:01:00,mfh,69.42
2023-06-13T07:02:00,mfh,69.29
2023-06-13T07:03:00,mfh,69.38
2023-06-13T07:04:00,mfh,70.05
2023-06-13T07:05:00,mfh,69.76
2023-06-13T07:06:00,mfh,69.70
2023-06-13T07:07:00,mfh,70.11
2023-06-13T07:08:00,mfh,69.77
2023-06-13T07:09:00,mfh,69.30
2023-06-13T07:10:00,mfh,69.04
2023-06-13T07:11:00,mfh,69.77
2023-06-13T07:12:00,mfh,69.03
2023-06-13T07:13:00,mfh,70.06
2023-06-13T07:14:00,mfh,69.65
2023-06-13T07:15:00,mfh,69.83
2023-06-13T07:16:00,mfh,69.62
2023-06-13T07:17:00,mfh,69.77
2023-06-13T07:18:00,mfh,69.11
2023-06-13T07:19:00,mfh,70.09
2023-06-13T07:20:00,mfh,69.09
2023-06-13T07:21:00,mfh,69.28
2023-06-13T07:22:00,mfh,70.51
2023-06-13T07:23:00,mfh,70.67
2023-06-13T07:24:00,mfh,70.51
2023-06-13T07:25:00,mfh,70.39
2023-06-13T07:26:00,mfh,70.51
2023-06-13T07:27:00,mfh,70.20
2023-06-13T07:28:00,mfh,70.14
2023-06-13T07:29:00,mfh,69.93
2023-06-13T07:30:00,mfh,70.11
2023-06-13T07:31:00,mfh,70.65
2023-06-13T07:32:00,mfh,70.66
2023-06-13T07:33:00,mfh,70.82
2023-06-13T07:34:00,mfh,70.96
2023-06-13T07:35:00,mfh,70.78
2023-06-13T07:36:00,mfh,70.19
2023-06-13T07:37:00,mfh,71.52
2023-06-13T07:38:00,mfh,70.11
2023-06-13T07:39:00,mfh,71.64
2023-06-13T07:40:00,mfh,72.37
2023-06-13T07:41:00,mfh,72.61
2023-06-13T07:42:00,mfh,72.69
2023-06-13T07:43:00,mfh,72.48
2023-06-13T07:44:00,mfh,72.39
2023-06-13T07:45:00,mfh,72.76
2023-06-13T07:46:00,mfh,72.63
2023-06-13T07:47:00,mfh,72.63
2023-06-13T07:48:00,mfh,73.18
2023-06-13T07:49:00,mfh,73.50
2023-06-13T07:50:00,mfh,73.14
2023-06-13T07:51:00,mfh,73.20
2023-06-13T07:52:00,mfh,72.14
2023-06-13T07:53:00,mfh,71.61
2023-06-13T07:54:00,mfh,70.61
2023-06-13T07:55:00,mfh,74.37
2023-06-13T07:56:00,mfh,73.81
2023-06-13T07:57:00,mfh,73.94
2023-06-13T07:58:00,mfh,74.61
2023-06-13T07:59:00,mfh,73.12
2023-06-13T08:00:00,mfh,74.94
2023-06-13T08:01:00,mfh,74.31
2023-06-13T08:02:00,mfh,73.93
2023-06-13T08:03:00,mfh,74.21
2023-06-13T08:04:00,mfh,72.81
2023-06-13T08:05:00,mfh,73.76
2023-06-13T08:06:00,mfh,74.55
2023-06-13T08:07:00,mfh,74.67
2023-06-13T08:08:00,mfh,73.41
2023-06-13T08:09:00,mfh,73.10
2023-06-13T08:10:00,mfh,73.22
2023-06-13T08:11:00,mfh,73.19
2023-06-13T08:12:00,mfh,72.65
2023-06-13T08:13:00,mfh,72.38
2023-06-13T08:14:00,mfh,72.26
2023-06-13T08:15:00,mfh,72.96
2023-06-13T08:16:00,mfh,73.94
2023-06-13T08:17:00,mfh,73.23
2023-06-13T08:18:00,mfh,73.46
2023-06-13T08:19:00,mfh,71.82
2023-06-13T08:20:00,mfh,71.07
2023-06-13T08:21:00,mfh,70.17
2023-06-13T08:22:00,mfh,70.25
2023-06-13T08:23:00,mfh,70.17
2023-06-13T08:24:00,mfh,70.17
2023-06-13T08:25:00,mfh,70.80
2023-06-13T08:26:00,mfh,70.84
2023-06-13T08:27:00,mfh,70.78
2023-06-13T08:28:00,mfh,70.83
2023-06-13T08:29:00,mfh,71.23
2023-06-13T08:30:00,mfh,70.25
2023-06-13T08:31:00,mfh,70.38
2023-06-13T08:32:00,mfh,69.76
2023-06-13T08:33:00,mfh,73.26
2023-06-13T08:34:00,mfh,74.15
2023-06-13T08:35:00,mfh,73.60
2023-06-13T08:36:00,mfh,73.90
2023-06-13T08:37:00,mfh,73.48
2023-06-13T08:38:00,mfh,71.45
2023-06-13T08:39:00,mfh,72.81
2023-06-13T08:40:00,mfh,72.92
2023-06-13T08:41:00,mfh,72.76
2023-06-13T08:42:00,mfh,73.60
2023-06-13T08:43:00,mfh,73.58
2023-06-13T08:44:00,mfh,70.39
2023-06-13T08:45:00,mfh,72.37
2023-06-13T08:46:00,mfh,73.79
2023-06-13T08:47:00,mfh,73.71
2023-06-13T08:48:00,mfh,72.92
2023-06-13T08:49:00,mfh,73.10
2023-06-13T08:50:00,mfh,72.88
2023-06-13T08:51:00,mfh,69.81
2023-06-13T08:52:00,mfh,70.67
2023-06-13T08:53:00,mfh,70.68
2023-06-13T08:54:00,mfh,70.83
2023-06-13T08:55:00,mfh,70.64
2023-06-13T08:56:00,mfh,69.83
2023-06-13T08:57:00,mfh,70.02
2023-06-13T08:58:00,mfh,69.92
2023-06-13T08:59:00,mfh,69.67
2023-06-13T09:00:00,mfh,70.35
2023-06-13T09:01:00,mfh,70.55
2023-06-13T09:02:00,mfh,71.38
2023-06-13T09:03:00,mfh,71.03
2023-06-13T09:04:00,mfh,70.87
2023-06-13T09:05:00,mfh,70.29
2023-06-13T09:06:00,mfh,71.74
2023-06-13T09:07:00,mfh,72.46
2023-06-13T09:08:00,mfh,72.78
2023-06-13T09:09:00,mfh,73.42
2023-06-13T09:10:00,mfh,73.46
2023-06-13T09:11:00,mfh,71.87
2023-06-13T09:12:00,mfh,71.01
2023-06-13T09:13:00,mfh,71.02
2023-06-13T09:14:00,mfh,70.44
2023-06-13T09:15:00,mfh,70.54
2023-06-13T09:16:00,mfh,70.83
2023-06-13T09:17:00,mfh,70.47
2023-06-13T09:18:00,mfh,71.26
2023-06-13T09:19:00,mfh,71.81
2023-06-13T09:20:00,mfh,71.80
2023-06-13T09:21:00,mfh,71.70
2023-06-13T09:22:00,mfh,71.54
2023-06-13T09:23:00,mfh,70.89
2023-06-13T09:24:00,mfh,70.80
2023-06-13T09:25:00,mfh,70.60
2023-06-13T09:26:00,mfh,70.72
2023-06-13T09:27:00,mfh,71.36
2023-06-13T09:28:00,mfh,71.05
2023-06-13T09:29:00,mfh,70.96
2023-06-13T09:30:00,mfh,71.36
2023-06-13T09:31:00,mfh,71.14
2023-06-13T09:32:00,mfh,70.36
2023-06-13T09:33:00,mfh,70.30
2023-06-13T09:34:00,mfh,70.37
2023-06-13T09:35:00,mfh,70.34
2023-06-13T09:36:00,mfh,71.27
2023-06-13T09:37:00,mfh,71.12
2023-06-13T09:38:00,mfh,71.41
2023-06-13T09:39:00,mfh,71.42
2023-06-13T09:40:00,mfh,71.32
2023-06-13T09:41:00,mfh,71.24
2023-06-13T09:42:00,mfh,71.02
2023-06-13T09:43:00,mfh,69.77
2023-06-13T09:44:00,mfh,70.00
2023-06-13T09:45:00,mfh,70.66
2023-06-13T09:46:00,mfh,71.13
2023-06-13T09:47:00,mfh,70.61
2023-06-13T09:48:00,mfh,70.73
2023-06-13T09:49:00,mfh,70.65
2023-06-13T09:50:00,mfh,70.17
2023-06-13T09:51:00,mfh,69.97
2023-06-13T09:52:00,mfh,69.91
2023-06-13T09:53:00,mfh,70.00
2023-06-13T09:54:00,mfh,70.66
2023-06-13T09:55:00,mfh,70.79
2023-06-13T09:56:00,mfh,70.89
2023-06-13T09:57:00,mfh,70.79
2023-06-13T09:58:00,mfh,71.96
2023-06-13T09:59:00,mfh,70.88
2023-06-13T10:00:00,mfh,70.79
2023-06-13T10:01:00,mfh,70.41
2023-06-13T10:02:00,mfh,70.20
2023-06-13T10:03:00,mfh,70.90
2023-06-13T10:04:00,mfh,70.80
2023-06-13T10:05:00,mfh,70.80
2023-06-13T10:06:00,mfh,71.17
2023-06-13T10:07:00,mfh,70.88
2023-06-13T10:08:00,mfh,70.28
2023-06-13T10:09:00,mfh,70.23
2023-06-13T10:10:00,mfh,73.66
2023-06-13T10:11:00,mfh,74.82
2023-06-13T10:12:00,mfh,73.75
2023-06-13T10:13:00,mfh,73.76
2023-06-13T10:14:00,mfh,74.05
2023-06-13T10:15:00,mfh,72.58
2023-06-13T10:16:00,mfh,73.61
2023-06-13T10:17:00,mfh,73.00
2023-06-13T10:18:00,mfh,73.10
2023-06-13T10:19:00,mfh,72.99
2023-06-13T10:20:00,mfh,73.73
2023-06-13T10:21:00,mfh,74.00
2023-06-13T10:22:00,mfh,72.93
2023-06-13T10:23:00,mfh,74.05
2023-06-13T10:24:00,mfh,72.60
2023-06-13T10:25:00,mfh,72.96
2023-06-13T10:26:00,mfh,71.89
2023-06-13T10:27:00,mfh,71.83
2023-06-13T10:28:00,mfh,70.46
2023-06-13T10:29:00,mfh,72.43
2023-06-13T10:30:00,mfh,74.23
2023-06-13T10:31:00,mfh,72.41
2023-06-13T10:32:00,mfh,74.90
2023-06-13T10:33:00,mfh,74.59
2023-06-13T10:34:00,mfh,73.81
2023-06-13T10:35:00,mfh,72.88
2023-06-13T10:36:00,mfh,71.19
2023-06-13T10:37:00,mfh,71.14
2023-06-13T10:38:00,mfh,71.80
2023-06-13T10:39:00,mfh,73.20
2023-06-13T10:40:00,mfh,73.28
2023-06-13T10:41:00,mfh,72.55
2023-06-13T10:42:00,mfh,73.51
2023-06-13T10:43:00,mfh,71.04
2023-06-13T10:44:00,mfh,72.40
2023-06-13T10:45:00,mfh,73.06
2023-06-13T10:46:00,mfh,71.89
2023-06-13T10:47:00,mfh,73.70
2023-06-13T10:48:00,mfh,73.56
2023-06-13T10:49:00,mfh,73.31
2023-06-13T10:50:00,mfh,72.12
2023-06-13T10:51:00,mfh,74.75
2023-06-13T10:52:00,mfh,72.46
2023-06-13T10:53:00,mfh,69.80
2023-06-13T10:54:00,mfh,71.45
2023-06-13T10:55:00,mfh,71.24
2023-06-13T10:56:00,mfh,70.43
2023-06-13T10:57:00,mfh,73.50
2023-06-13T10:58:00,mfh,73.46
2023-06-13T10:59:00,mfh,72.10
2023-06-13T11:00:00,mfh,71.13
2023-06-13T11:01:00,mfh,72.40
2023-06-13T11:02:00,mfh,72.85
2023-06-13T11:03:00,mfh,71.33
2023-06-13T11:04:00,mfh,73.55
2023-06-13T11:05:00,mfh,73.39
2023-06-13T11:06:00,mfh,73.49
2023-06-13T11:07:00,mfh,73.30
2023-06-13T11:08:00,mfh,73.67
2023-06-13T11:09:00,mfh,73.53
2023-06-13T11:10:00,mfh,71.72
2023-06-13T11:11:00,mfh,72.73
2023-06-13T11:12:00,mfh,71.60
2023-06-13T11:13:00,mfh,72.55
2023-06-13T11:14:00,mfh,73.24
2023-06-13T11:15:00,mfh,73.75
2023-06-13T11:16:00,mfh,74.60
2023-06-13T11:17:00,mfh,73.07
2023-06-13T11:18:00,mfh,73.12
2023-06-13T11:19:00,mfh,73.66
2023-06-13T11:20:00,mfh,73.05
2023-06-13T11:21:00,mfh,69.92
2023-06-13T11:22:00,mfh,70.66
2023-06-13T11:23:00,mfh,70.55
2023-06-13T11:24:00,mfh,70.58
2023-06-13T11:25:00,mfh,71.51
2023-06-13T11:26:00,mfh,70.52
2023-06-13T11:27:00,mfh,72.68
2023-06-13T11:28:00,mfh,73.15
2023-06-13T11:29:00,mfh,72.88
2023-06-13T11:30:00,mfh,72.78
2023-06-13T11:31:00,mfh,71.37
2023-06-13T11:32:00,mfh,70.97
2023-06-13T11:33:00,mfh,69.98
2023-06-13T11:34:00,mfh,70.22
2023-06-13T11:35:00,mfh,69.37
2023-06-13T11:36:00,mfh,69.40
2023-06-13T11:37:00,mfh,69.33
2023-06-13T11:38:00,mfh,69.33
2023-06-13T11:39:00,mfh,69.31
2023-06-13T11:40:00,mfh,69.95
2023-06-13T11:41:00,mfh,71.54
2023-06-13T11:42:00,mfh,71.53
2023-06-13T11:43:00,mfh,69.94
2023-06-13T11:44:00,mfh,69.92
2023-06-13T11:45:00,mfh,69.15
2023-06-13T11:46:00,mfh,69.23
2023-06-13T11:47:00,mfh,69.38
2023-06-13T11:48:00,mfh,69.54
2023-06-13T11:49:00,mfh,69.98
2023-06-13T11:50:00,mfh,69.88
2023-06-13T11:51:00,mfh,69.90
2023-06-13T11:52:00,mfh,69.66
2023-06-13T11:53:00,mfh,69.06
2023-06-13T11:54:00,mfh,70.84
2023-06-13T11:55:00,mfh,69.03
2023-06-13T11:56:00,mfh,68.75
2023-06-13T11:57:00,mfh,69.80
2023-06-13T11:58:00,mfh,70.37
2023-06-13T11:59:00,mfh,70.36
2023-06-13T12:00:00,mfh,70.01
2023-06-13T12:01:00,mfh,69.47
2023-06-13T12:02:00,mfh,69.26
2023-06-13T12:03:00,mfh,69.10
2023-06-13T12:04:00,mfh,69.20
2023-06-13T12:05:00,mfh,69.16
2023-06-13T12:06:00,mfh,69.21
2023-06-13T12:07:00,mfh,69.67
2023-06-13T12:08:00,mfh,70.16
2023-06-13T12:09:00,mfh,70.22
2023-06-13T12:10:00,mfh,72.02
2023-06-13T12:11:00,mfh,71.04
2023-06-13T12:12:00,mfh,69.37
2023-06-13T12:13:00,mfh,69.24
2023-06-13T12:14:00,mfh,69.13
2023-06-13T12:15:00,mfh,69.61
2023-06-13T12:16:00,mfh,71.04
2023-06-13T12:17:00,mfh,71.37
2023-06-13T12:18:00,mfh,71.73
2023-06-13T12:19:00,mfh,71.66
2023-06-13T12:20:00,mfh,70.80
2023-06-13T12:21:00,mfh,69.43
2023-06-13T12:22:00,mfh,69.84
2023-06-13T12:23:00,mfh,69.69
2023-06-13T12:24:00,mfh,70.50
2023-06-13T12:25:00,mfh,71.31
2023-06-13T12:26:00,mfh,70.95
2023-06-13T12:27:00,mfh,70.83
2023-06-13T12:28:00,mfh,70.86
2023-06-13T12:29:00,mfh,70.30
2023-06-13T12:30:00,mfh,70.37
2023-06-13T12:31:00,mfh,69.68
2023-06-13T12:32:00,mfh,69.92
2023-06-13T12:33:00,mfh,70.74
2023-06-13T12:34:00,mfh,70.41
2023-06-13T12:35:00,mfh,70.21
2023-06-13T12:36:00,mfh,70.19
2023-06-13T12:37:00,mfh,70.43
2023-06-13T12:38:00,mfh,69.68
2023-06-13T12:39:00,mfh,69.78
2023-06-13T12:40:00,mfh,69.54
2023-06-13T12:41:00,mfh,70.37
2023-06-13T12:42:00,mfh,70.53
2023-06-13T12:43:00,mfh,70.88
2023-06-13T12:44:00,mfh,69.97
2023-06-13T12:45:00,mfh,70.86
2023-06-13T12:46:00,mfh,70.21
2023-06-13T12:47:00,mfh,69.35
2023-06-13T12:48:00,mfh,68.99
2023-06-13T12:49:00,mfh,68.87
2023-06-13T12:50:00,mfh,69.47
2023-06-13T12:51:00,mfh,70.07
2023-06-13T12:52:00,mfh,69.91
2023-06-13T12:53:00,mfh,70.18
2023-06-13T12:54:00,mfh,69.77
2023-06-13T12:55:00,mfh,69.68
2023-06-13T12:56:00,mfh,69.13
2023-06-13T12:57:00,mfh,69.64
2023-06-13T12:58:00,mfh,69.22
2023-06-13T12:59:00,mfh,69.16
2023-06-13T13:00:00,mfh,69.95
2023-06-13T13:01:00,mfh,69.93
2023-06-13T13:02:00,mfh,69.90
2023-06-13T13:03:00,mfh,70.09
2023-06-13T13:04:00,mfh,69.82
2023-06-13T13:05:00,mfh,71.30
2023-06-13T13:06:00,mfh,71.62
2023-06-13T13:07:00,mfh,72.46
2023-06-13T13:08:00,mfh,70.23
2023-06-13T13:09:00,mfh,70.73
2023-06-13T13:10:00,mfh,70.40
2023-06-13T13:11:00,mfh,70.50
2023-06-13T13:12:00,mfh,73.38
2023-06-13T13:13:00,mfh,74.25
2023-06-13T13:14:00,mfh,74.08
2023-06-13T13:15:00,mfh,74.14
2023-06-13T13:16:00,mfh,74.42
2023-06-13T13:17:00,mfh,72.64
2023-06-13T13:18:00,mfh,72.42